DW4139 Weather Reports


Display with metric or nautical units.
time (UTC)temp
F
wind
direction
speed
MPH
gust
MPH
rain 1hr
in
rain 24hr
in
rain mn
in
humidity
%
barometer
mb
20191020054048 45 0.0 0.0 0.00 0.00 0.00 84 1010.5
20191020053021 45 0.0 0.0 0.00 0.00 0.00 84 1010.5
20191020052021 45 0.0 0.0 0.00 0.00 0.00 84 1010.6
20191020051027 46 0.0 0.0 0.00 0.00 0.00 84 1010.5
20191020050020 46 0.0 0.0 0.00 0.00 0.00 84 1010.6
20191020045018 46 0.0 0.0 0.00 0.00 0.00 84 1010.6
20191020044031 46 0.0 0.0 0.00 0.00 0.00 84 1010.6
20191020043044 46 0.0 0.0 0.00 0.00 0.00 84 1010.6
20191020042021 45 0.0 0.0 0.00 0.00 0.00 85 1010.6
20191020041022 45 0.0 0.0 0.00 0.00 0.00 84 1010.6
20191020040048 45 0.0 0.0 0.00 0.00 0.00 84 1010.5
20191020035025 45 0.0 0.0 0.00 0.00 0.00 84 1010.5
20191020034031 45 0.0 0.0 0.00 0.00 0.00 84 1010.4
20191020033031 45 0.0 0.0 0.00 0.00 0.00 84 1010.6
20191020032031 45 0.0 0.0 0.00 0.00 0.00 83 1010.6
20191020031041 45 0.0 0.0 0.00 0.00 0.00 83 1010.7
20191020030016 45 0.0 0.0 0.00 0.00 0.00 83 1010.8
20191020025028 45 0.0 0.0 0.00 0.00 0.00 83 1010.6
20191020024033 45 0.0 0.0 0.00 0.00 0.00 83 1010.5
20191020023041 46 0.0 0.0 0.00 0.00 0.00 83 1010.5
20191020022040 46 0.0 0.0 0.00 0.00 0.00 82 1010.6
20191020021046 46 0.0 0.0 0.00 0.00 0.00 81 1010.6
20191020020016 46 0.0 0.0 0.00 0.00 0.00 81 1010.7
20191020015021 47 0.0 0.0 0.00 0.00 0.00 81 1010.9
20191020014031 47 0.0 0.0 0.00 0.00 0.00 81 1011.0
20191020013038 47 0.0 0.0 0.00 0.00 0.00 80 1011.0
20191020012049 47 0.0 0.0 0.00 0.00 0.00 79 1011.0
20191020011022 47 0.0 0.0 0.00 0.00 0.00 79 1011.0
20191020010031 48 0.0 0.0 0.00 0.00 0.00 78 1011.1
20191020005036 48 0.0 0.0 0.00 0.00 0.00 77 1011.0
20191020004041 49 0.0 0.0 0.00 0.00 0.00 77 1011.1
20191020003043 49 0.0 0.0 0.00 0.00 0.00 76 1011.2
20191020002049 50 0.0 0.0 0.00 0.00 0.00 76 1011.3
20191020001017 50 0.0 0.0 0.00 0.00 0.00 75 1011.4
20191020000031 51 0.0 0.0 0.00 0.00 0.00 74 1011.4
20191019235033 52 0.0 0.0 0.00 0.00 0.00 73 1011.1
20191019234027 52 0.0 0.0 0.00 0.00 0.00 73 1011.3
20191019233036 53 0.0 0.0 0.00 0.00 0.00 72 1011.1
20191019232047 54 0.0 0.0 0.00 0.00 0.00 71 1011.4
20191019231019 54 0.0 0.0 0.00 0.00 0.00 71 1011.2
20191019230026 55 0.0 0.0 0.00 0.00 0.00 69 1011.3
20191019225036 56 0.0 0.0 0.00 0.00 0.00 68 1011.5
20191019224047 56 0.0 0.0 0.00 0.00 0.00 67 1011.7
20191019223019 57 0.0 0.0 0.00 0.00 0.00 65 1011.8
20191019222031 58 0.0 0.0 0.00 0.00 0.00 63 1012.0
20191019221042 59 0.0 0.0 0.00 0.00 0.00 62 1012.1
20191019220043 59 0.0 0.0 0.00 0.00 0.00 63 1012.2
20191019215023 60 0.0 0.0 0.00 0.00 0.00 63 1012.2
20191019214033 60 0.0 0.0 0.00 0.00 0.00 62 1012.2
20191019213039 60 0.0 0.0 0.00 0.00 0.00 62 1012.2
20191019212046 60 0.0 0.0 0.00 0.00 0.00 61 1012.4
20191019211019 60 0.0 0.0 0.00 0.00 0.00 60 1012.5
20191019210023 61 0.0 0.0 0.00 0.00 0.00 60 1012.6
20191019205033 61 0.0 0.0 0.00 0.00 0.00 58 1012.7
20191019204042 63 0.0 0.0 0.00 0.00 0.00 55 1012.7
20191019203048 64 0.0 0.0 0.00 0.00 0.00 51 1012.8
20191019202044 64 0.0 0.0 0.00 0.00 0.00 50 1012.8
20191019201047 65 0.0 0.0 0.00 0.00 0.00 48 1012.8
20191019200023 66 0.0 0.0 0.00 0.00 0.00 47 1012.8
20191019195033 67 0.0 0.0 0.00 0.00 0.00 47 1012.9
20191019194034 66 0.0 0.0 0.00 0.00 0.00 47 1013.0
20191019193041 66 23 2.0 4.0 0.00 0.00 0.00 49 1013.1
20191019192022 65 0.0 0.0 0.00 0.00 0.00 49 1013.1
20191019191030 65 68 0.0 2.0 0.00 0.00 0.00 49 1013.2
20191019190039 63 0.0 0.0 0.00 0.00 0.00 50 1013.4
20191019185045 63 0.0 0.0 0.00 0.00 0.00 50 1013.4
20191019184024 63 203 2.0 6.0 0.00 0.00 0.00 50 1013.6
20191019183029 64 158 2.0 4.0 0.00 0.00 0.00 49 1013.7
20191019182034 65 0.0 0.0 0.00 0.00 0.00 48 1014.0
20191019181049 65 185 3.0 4.0 0.00 0.00 0.00 50 1014.1
20191019180016 64 0.0 0.0 0.00 0.00 0.00 51 1014.2
20191019175024 63 0.0 0.0 0.00 0.00 0.00 52 1014.3
20191019174039 62 0.0 0.0 0.00 0.00 0.00 52 1014.7
20191019173044 62 225 0.0 3.0 0.00 0.00 0.00 51 1014.8
20191019172049 62 0.0 0.0 0.00 0.00 0.00 51 1014.8
20191019171048 63 221 2.0 5.0 0.00 0.00 0.00 50 1015.0
20191019170016 63 0.0 0.0 0.00 0.00 0.00 52 1015.2
20191019165021 63 213 3.0 6.0 0.00 0.00 0.00 52 1015.2
20191019164019 62 248 3.0 3.0 0.00 0.00 0.00 53 1015.2
20191019163029 62 0.0 0.0 0.00 0.00 0.00 53 1015.1
20191019162030 62 0.0 0.0 0.00 0.00 0.00 55 1015.2
20191019161033 61 235 2.0 4.0 0.00 0.00 0.00 55 1015.3
20191019160039 61 0.0 0.0 0.00 0.00 0.00 57 1015.5
20191019155045 60 0.0 0.0 0.00 0.00 0.00 58 1015.5
20191019154023 59 0.0 0.0 0.00 0.00 0.00 60 1015.5
20191019153027 58 0.0 0.0 0.00 0.00 0.00 61 1015.6
20191019152039 58 220 2.0 4.0 0.00 0.00 0.00 62 1015.9
20191019151041 57 225 0.0 1.0 0.00 0.00 0.00 64 1016.0
20191019150046 56 203 1.0 2.0 0.00 0.00 0.00 66 1016.0
20191019145050 54 158 0.0 1.0 0.00 0.00 0.00 69 1016.1
20191019144020 53 208 2.0 4.0 0.00 0.00 0.00 70 1016.3
20191019143023 52 197 4.0 6.0 0.00 0.00 0.00 72 1016.3
20191019142031 51 203 7.0 9.0 0.00 0.00 0.00 75 1016.5
20191019141038 50 225 1.0 2.0 0.00 0.00 0.00 76 1016.6
20191019140040 48 183 3.0 4.0 0.00 0.00 0.00 79 1016.6
20191019135045 47 248 1.0 4.0 0.00 0.00 0.00 80 1016.6
20191019134018 46 180 1.0 1.0 0.00 0.00 0.00 83 1016.7
20191019133021 45 0.0 0.0 0.00 0.00 0.00 85 1016.8
20191019132025 44 203 1.0 2.0 0.00 0.00 0.00 86 1016.8
20191019131031 43 0.0 0.0 0.00 0.00 0.00 87 1016.7
20191019130036 42 206 2.0 2.0 0.00 0.00 0.00 88 1016.7
20191019125048 42 0.0 0.0 0.00 0.00 0.00 88 1016.6
20191019124016 41 0.0 0.0 0.00 0.00 0.00 88 1016.4
20191019123025 41 158 0.0 0.0 0.00 0.00 0.00 89 1016.5
20191019122031 40 203 2.0 4.0 0.00 0.00 0.00 90 1016.5
20191019121038 39 214 1.0 3.0 0.00 0.00 0.00 90 1016.5
20191019120049 39 225 1.0 5.0 0.00 0.00 0.00 90 1016.6
20191019115021 38 203 0.0 1.0 0.00 0.00 0.00 90 1016.6
20191019114028 38 0.0 0.0 0.00 0.00 0.00 90 1016.6
20191019113031 38 0.0 0.0 0.00 0.00 0.00 90 1016.6
20191019112036 38 203 0.0 1.0 0.00 0.00 0.00 90 1016.6
20191019111017 38 0.0 0.0 0.00 0.00 0.00 90 1016.6
20191019110024 38 0.0 0.0 0.00 0.00 0.00 90 1016.6
20191019105031 38 0.0 0.0 0.00 0.00 0.00 90 1016.7
20191019104033 37 0.0 0.0 0.00 0.00 0.00 90 1016.6
20191019103037 37 0.0 0.0 0.00 0.00 0.00 89 1016.5
20191019102016 37 0.0 0.0 0.00 0.00 0.00 89 1016.6
20191019101021 37 0.0 0.0 0.00 0.00 0.00 89 1016.5
20191019100022 37 0.0 0.0 0.00 0.00 0.00 89 1016.5
20191019095034 37 0.0 0.0 0.00 0.00 0.00 89 1016.4
20191019094040 37 0.0 0.0 0.00 0.00 0.00 89 1016.4
20191019093041 37 0.0 0.0 0.00 0.00 0.00 89 1016.4
20191019092019 37 0.0 0.0 0.00 0.00 0.00 89 1016.5
20191019091023 37 0.0 0.0 0.00 0.00 0.00 89 1016.7
20191019090022 37 0.0 0.0 0.00 0.00 0.00 89 1016.7
20191019085031 37 0.0 0.0 0.00 0.00 0.00 89 1016.8
20191019084033 37 0.0 0.0 0.00 0.00 0.00 89 1016.6
20191019083043 37 0.0 0.0 0.00 0.00 0.00 89 1016.7
20191019082047 37 0.0 0.0 0.00 0.00 0.00 89 1016.8
20191019081023 37 0.0 0.0 0.00 0.00 0.00 89 1016.8
20191019080031 37 0.0 0.0 0.00 0.00 0.00 89 1016.9
20191019075031 37 0.0 0.0 0.00 0.00 0.00 89 1017.0
20191019074036 37 0.0 0.0 0.00 0.00 0.00 88 1016.9
20191019073045 37 0.0 0.0 0.00 0.00 0.00 88 1016.9
20191019072048 37 0.0 0.0 0.00 0.00 0.00 88 1016.9
20191019071020 37 0.0 0.0 0.00 0.00 0.00 88 1016.9
20191019070016 37 0.0 0.0 0.00 0.00 0.00 88 1017.0
20191019065026 37 0.0 0.0 0.00 0.00 0.00 88 1017.0
20191019064034 37 0.0 0.0 0.00 0.00 0.00 88 1017.1
20191019063047 37 0.0 0.0 0.00 0.00 0.00 88 1017.1
20191019062017 37 0.0 0.0 0.00 0.00 0.00 88 1016.9
20191019061021 37 0.0 0.0 0.00 0.00 0.00 87 1016.9
20191019060015 38 0.0 0.0 0.00 0.00 0.00 87 1016.8
20191019055019 38 0.0 0.0 0.00 0.00 0.00 87 1016.7